Colorado Springs, CO

8:03 PM MDT on April 27, 2017 (GMT -0600)
City Of Colorado Springs Municipal

Weather History for KCOS - January, 2014

Change the Weather History Date:

Saturday, January 18, 2014

  Actual Average Record
Temperature  
Mean Temperature 42 °F 31 °F  
Max Temperature 58 °F 43 °F 67 °F (1920)
Min Temperature 26 °F 18 °F -20 °F (1984)
Degree Days  
Heating Degree Days 23 34  
Month to date heating degree days 619 622  
Since 1 July heating degree days 3083 3194  
Cooling Degree Days 0 0  
Month to date cooling degree days 0 0  
Year to date cooling degree days 0 0  
Moisture  
Dew Point 7 °F    
Average Humidity 27    
Maximum Humidity 46    
Minimum Humidity 8    
Precipitation  
Precipitation 0.00 in 0.01 in 0.17 in (1988)
Month to date precipitation 0.18 0.17  
Year to date precipitation 0.18 0.17  
Snow  
Snow 0.00 in 0.20 in 4.50 in (1935)
Month to date snowfall 3.5 3.2  
Since 1 July snowfall 10.6 16.7  
Snow Depth 0.00 in    
Sea Level Pressure  
Sea Level Pressure 30.20 in    
Wind  
Wind Speed 10 mph (North)    
Max Wind Speed 21 mph    
Max Gust Speed 26 mph    
Visibility 10 miles    
Events      
T = Trace of Precipitation, MM = Missing Value Source: NWS Daily Summary

Daily Weather History Graph

Daily Weather History Graph

Search for Another Location

Airport or City:

Trip Planner

Search our weather history database for the weather conditions in past years. The results will help you decide how hot, cold, wet, or windy it might be!

Date:

Astronomy

Jan. 18, 2014 Rise Set
Actual Time 7:14 AM MST 5:04 PM MST
Civil Twilight 6:45 AM MST 5:33 PM MST
Nautical Twilight 6:12 AM MST 6:06 PM MST
Astronomical Twilight 5:41 AM MST 6:37 PM MST
Moon 7:46 PM MST (1/18) 8:17 AM MST (1/18)
Length of Visible Light 10h 48m
Length of Day
9h 50m
Waning Gibbous, 94% of the Moon is Illuminated
Jan 18
Waning Gibbous
Jan 23
Last Quarter
Jan 30
New
Feb 6
First Quarter
Feb 14
Full

Hourly Weather History & Observations

Time (MST) Temp. Windchill Dew Point Humidity Pressure Visibility Wind Dir Wind Speed Gust Speed Precip Events Conditions
12:54 AM 30.9 °F 22.2 °F 10.0 °F 42% 30.10 in 10.0 mi North 10.4 mph - N/A   Clear
1:54 AM 32.0 °F 22.1 °F 9.0 °F 38% 30.12 in 10.0 mi North 13.8 mph - N/A   Partly Cloudy
2:54 AM 35.1 °F 25.9 °F 8.1 °F 33% 30.11 in 10.0 mi North 13.8 mph - N/A   Partly Cloudy
3:54 AM 32.0 °F 23.0 °F 7.0 °F 35% 30.12 in 10.0 mi North 11.5 mph - N/A   Clear
4:54 AM 30.9 °F 23.5 °F 8.1 °F 38% 30.16 in 10.0 mi NNW 8.1 mph - N/A   Clear
5:54 AM 30.9 °F 23.5 °F 7.0 °F 37% 30.19 in 10.0 mi North 8.1 mph - N/A   Clear
6:54 AM 33.1 °F 28.7 °F 7.0 °F 34% 30.21 in 10.0 mi NNW 4.6 mph - N/A   Clear
7:54 AM 28.0 °F 20.0 °F 10.0 °F 47% 30.29 in 10.0 mi NNE 8.1 mph - N/A   Clear
8:54 AM 42.1 °F 37.1 °F 10.0 °F 27% 30.24 in 10.0 mi NW 8.1 mph - N/A   Partly Cloudy
9:54 AM 50.0 °F - 7.0 °F 18% 30.19 in 10.0 mi NNW 5.8 mph - N/A   Partly Cloudy
10:54 AM 52.0 °F - 5.0 °F 15% 30.19 in 10.0 mi Calm Calm - N/A   Partly Cloudy
11:54 AM 55.9 °F - -5.1 °F 8% 30.17 in 10.0 mi NNW 15.0 mph - N/A   Partly Cloudy
12:54 PM 57.0 °F - -6.0 °F 8% 30.13 in 10.0 mi North 20.7 mph - N/A   Partly Cloudy
1:54 PM 57.0 °F - -5.1 °F 8% 30.13 in 10.0 mi North 15.0 mph 26.5 mph N/A   Clear
2:54 PM 55.0 °F - 3.0 °F 12% 30.14 in 10.0 mi NNE 15.0 mph - N/A   Clear
3:54 PM 50.0 °F - 8.1 °F 18% 30.21 in 10.0 mi NE 15.0 mph - N/A   Clear
4:54 PM 43.0 °F 37.7 °F 9.0 °F 25% 30.27 in 10.0 mi ENE 9.2 mph - N/A   Clear
5:54 PM 36.0 °F 31.1 °F 10.0 °F 34% 30.30 in 10.0 mi North 5.8 mph - N/A   Clear
6:54 PM 35.1 °F 32.2 °F 10.9 °F 37% 30.31 in 10.0 mi SW 3.5 mph - N/A   Clear
7:54 PM 34.0 °F 26.6 °F 10.9 °F 38% 30.34 in 10.0 mi SE 9.2 mph - N/A   Clear
8:54 PM 35.1 °F 29.3 °F 10.9 °F 37% 30.25 in 10.0 mi SSE 6.9 mph - N/A   Clear
9:54 PM 35.1 °F 30.1 °F 10.0 °F 35% 30.19 in 10.0 mi SE 5.8 mph - N/A   Clear
10:54 PM 28.9 °F 21.1 °F 9.0 °F 43% 30.19 in 10.0 mi ENE 8.1 mph - N/A   Clear
11:54 PM 28.9 °F 21.1 °F 8.1 °F 41% 30.15 in 10.0 mi ENE 8.1 mph - N/A   Clear